Location: Lake Sonoma
(38.7200°N, 123.0564°W)
Time: 04:07:29
(UTC-07:00)

Daily predictions for brighter satellites

Satellite Brightness Start Highest point End
(mag) Time Altitude Azimuth Time Altitude Azimuth Time Altitude Azimuth
Cosmos 2082 Rocket 4.0 00:02:44 11° WSW 00:07:12 27° WNW 00:11:57 10° N
Cosmos 2251 Rocket 4.3 00:09:29 41° ENE 00:09:29 41° ENE 00:13:25 10° NNE
CZ-2C R/B 3.3 00:07:28 10° NNE 00:12:02 45° ENE 00:12:02 45° ENE
SeaSat 1 3.2 00:19:51 46° NE 00:19:51 46° NE 00:24:18 10° NNW
Terra 3.8 00:21:22 19° W 00:21:22 19° W 00:24:32 10° NW
USA 267 3.2 00:16:38 10° NE 00:23:10 79° NW 00:25:23 45° WSW
Cosmos 1697 Rocket 4.1 00:25:58 10° NW 00:30:07 26° W 00:30:07 26° W
NOSS 3-1 (C) 4.2 00:24:46 10° NNW 00:32:22 65° NE 00:34:44 47° ESE
Cosmos 1934 Rocket 3.9 00:29:12 10° N 00:35:35 87° W 00:35:40 87° SW
SL-16 R/B 2.4 00:30:03 10° NNW 00:35:24 65° NE 00:35:24 65° NE
Cosmos 1953 4.2 00:32:13 10° NNW 00:34:28 28° NW 00:34:28 28° NW
Lacrosse 5 3.1 00:40:43 34° NE 00:40:43 34° NE 00:43:34 10° NE
USA 32 4.5 00:40:08 57° NE 00:40:08 57° NE 00:44:27 10° N
Meteor 2-5 Rocket 3.8 00:56:18 80° NNW 00:56:18 80° NNW 01:01:57 10° N
USA 234 4.2 00:52:05 19° E 00:56:27 44° NNE 01:02:34 10° NW
USA 229 DEB 4.3 00:50:57 10° NW 00:57:24 45° WSW 00:57:24 45° WSW
USA 229 4.3 00:51:03 10° NW 00:57:31 45° WSW 00:57:31 45° WSW
Lacrosse 5 rocket 2.9 00:57:49 10° NNW 01:01:39 38° NNE 01:01:39 38° NNE
NOSS 3-1 (A) 4.1 00:57:03 10° NNW 01:04:46 77° ENE 01:06:48 55° SE
CZ-2C R/B 3.8 01:10:34 49° WNW 01:10:34 49° WNW 01:15:12 10° NNW
COSMOS 2428 4.4 01:09:44 10° N 01:14:30 26° ENE 01:16:27 22° E
ALOS 2 4.3 01:17:35 27° NW 01:17:35 27° NW 01:19:56 10° NNW
Cosmos 2360 Rocket 2.5 01:12:03 10° NNW 01:17:33 58° ENE 01:17:33 58° ENE
Cosmos 1980 Rocket 4.2 01:14:36 10° WNW 01:16:59 16° W 01:16:59 16° W
ATLAS CENTAUR R/B 3.8 01:14:50 10° NW 01:15:34 15° NW 01:15:34 15° NW
Cosmos 1727 Rocket 4.1 01:20:50 65° W 01:20:50 65° W 01:27:01 10° N
Cosmos 2322 Rocket 3.1 01:23:18 10° NW 01:27:23 38° WNW 01:27:23 38° WNW
Meteor 1-24 Rocket 4.1 01:39:57 60° WNW 01:39:57 60° WNW 01:45:48 10° N
Cosmos 1000 Rocket 4.4 01:41:01 83° ESE 01:41:05 84° E 01:47:27 10° N
H-2A R/B 3.8 01:38:56 10° NNE 01:41:40 38° NE 01:41:40 38° NE
Cosmos 2333 Rocket 4.2 01:42:41 10° N 01:47:09 23° NE 01:50:57 12° ESE
Cosmos 1992 Rocket 4.3 01:43:58 10° NNW 01:48:34 64° NNE 01:48:34 64° NNE
Cosmos 2173 Rocket 3.8 01:44:13 10° N 01:50:15 84° WNW 01:50:15 84° WNW
CZ-2C R/B 4.4 01:48:32 10° NNW 01:52:45 22° WNW 01:53:33 22° WNW
Cosmos 2297 Rocket 4.2 01:56:55 15° ESE 01:57:16 15° E 02:00:28 10° ENE
Cosmos 2219 Rocket 3.5 01:56:48 10° N 02:02:00 35° ENE 02:04:22 25° ESE
ISS -0.5 02:10:05 10° NNW 02:11:51 14° NNE 02:13:37 10° NE
Cosmos 2221 4.0 02:08:26 10° NNW 02:10:53 31° NW 02:10:53 31° NW
Cosmos 1459 Rocket 4.3 02:07:53 10° NNW 02:14:02 54° W 02:14:06 54° W
Cosmos 1726 3.9 02:13:41 10° N 02:16:05 30° NE 02:16:05 30° NE
Cosmos 1300 4.5 02:14:22 10° NNE 02:17:01 29° NE 02:17:01 29° NE
Cosmos 2237 Rocket 3.9 02:14:00 10° N 02:18:49 28° ENE 02:23:27 11° ESE
SL-16 R/B 4.3 02:15:57 10° WNW 02:17:15 13° WNW 02:17:15 13° WNW
Lacrosse 5 3.8 02:19:52 19° WNW 02:21:55 24° NNW 02:26:01 10° NNE
Cosmos 1864 Rocket 4.4 02:15:48 10° N 02:22:07 85° E 02:22:56 70° SSE
Cosmos 1802 Rocket 4.3 02:20:35 10° NNW 02:26:36 50° W 02:26:39 50° W
SL-8 R/B 4.0 02:27:35 63° N 02:27:35 63° N 02:31:56 10° NE
SL-16 R/B 4.3 02:26:41 10° ESE 02:31:43 27° ENE 02:36:46 10° N
Meteor 1-21 Rocket 4.5 02:32:11 57° W 02:32:28 58° WNW 02:38:16 10° N
Cosmos 2227 Rocket 2.8 02:33:48 42° ESE 02:34:20 44° ESE 02:39:41 10° NE
Cosmos 2016 Rocket 4.2 02:28:21 10° NNW 02:34:31 53° W 02:34:49 52° WSW
USA 234 3.2 02:39:22 56° SW 02:39:22 56° SW 02:45:44 10° NW
Cosmos 1140 Rocket 3.8 02:41:38 53° ESE 02:41:57 54° ESE 02:47:02 10° NNE
SL-08 R/B 4.0 02:45:30 41° ESE 02:46:47 52° ENE 02:51:35 10° N
Cosmos 2151 3.6 02:47:03 48° E 02:47:03 48° E 02:50:53 10° NNE
Meteor 2-10 4.1 02:42:31 10° N 02:47:38 68° E 02:48:27 58° SE
NOSS 2-1 (D) 4.1 02:51:12 45° ENE 02:51:12 45° ENE 02:54:23 10° NE
NOSS 2-1 (C) 4.2 02:51:22 44° ENE 02:51:22 44° ENE 02:54:30 10° NE
Cosmos 1328 Rocket 3.8 02:47:15 10° N 02:51:07 65° NNW 02:51:07 65° NNW
Resurs 1-4 Rocket 3.5 02:47:54 10° NE 02:52:31 29° E 02:54:23 24° SE
ADEOS Rocket 4.1 02:48:23 10° NNE 02:55:38 50° E 02:59:38 28° SSE
Cosmos 2219 3.9 02:54:56 37° W 02:55:46 39° WNW 03:01:02 10° N
ATLAS 2AS CENTAUR R/B 2.9 02:47:54 10° NNW 02:55:57 88° SW 03:01:01 23° SSE
AQUA 4.0 02:51:54 10° NNE 02:56:37 59° E 02:57:04 56° SE
Cosmos 2228 Rocket 3.2 02:52:41 10° N 02:56:43 67° NW 02:56:43 67° NW
COSMOS 2428 3.2 02:53:31 10° NW 02:58:26 43° W 02:58:26 43° W
Cosmos 1151 Rocket 3.2 02:55:24 10° N 02:59:44 66° E 02:59:54 65° E
Meteor 2-2 Rocket 4.1 02:54:20 10° NNW 02:59:55 67° W 03:00:30 62° SW
Cosmos 1455 4.3 02:57:41 10° NNE 03:00:50 23° ENE 03:02:20 19° ESE
Cosmos 2360 Rocket 4.1 02:57:25 10° WNW 02:59:17 16° WNW 02:59:17 16° WNW
NOSS 3-3 (A) 4.0 03:00:10 52° WSW 03:01:41 71° NW 03:08:18 10° NNE
NOSS 3-3 (C) 4.0 03:00:15 52° WSW 03:01:46 72° NW 03:08:24 10° NNE
Cosmos 2082 3.8 03:03:00 54° SSE 03:04:07 67° ESE 03:09:42 10° NNE
Cosmos 1447 Rocket 4.5 03:04:55 53° SW 03:06:15 68° W 03:12:31 10° N
CZ-2D R/B 3.1 03:02:38 10° NNE 03:07:31 39° E 03:09:26 29° SE
Meteor 1-11 4.2 03:07:22 55° S 03:08:42 85° E 03:14:29 10° N
CBERS-1 3.9 03:04:00 10° NNE 03:09:09 90° ESE 03:10:00 63° SSW
IRS-P3 Rocket 4.5 03:05:05 10° NNE 03:10:20 82° WNW 03:11:15 61° SSW
Cosmos 1023 Rocket 4.4 03:10:19 64° SW 03:11:04 79° WNW 03:16:19 10° NNE
Meteor 1-27 4.3 03:05:20 10° N 03:11:10 77° E 03:13:36 37° SSE
Cosmos 1954 Rocket 4.1 03:11:25 56° WSW 03:12:09 62° WNW 03:17:22 10° NNE
NOSS 2-1 (E) 3.3 03:13:33 79° NNE 03:13:33 79° NNE 03:17:32 10° NNE
Cosmos 407 Rocket 4.5 03:13:12 31° W 03:13:52 32° WNW 03:18:30 10° N
Cosmos 2233 Rocket 4.1 03:10:12 10° NNW 03:16:23 57° W 03:17:51 46° SW
ARIANE 5 R/B 3.3 03:12:25 10° NNE 03:17:18 45° E 03:19:11 31° SSE
GPS 2-04 Rocket1 4.1 03:20:18 28° ESE 03:20:18 28° ESE 03:22:31 10° ESE
Cosmos 1703 3.2 03:20:33 79° ESE 03:20:35 79° E 03:24:30 10° N
IRS-1C 4.0 03:18:20 10° NNE 03:23:42 86° WNW 03:25:12 49° SSW
Cosmos 1626 2.1 03:24:32 83° NNE 03:24:32 83° NNE 03:28:10 10° N
Cosmos 1072 Rocket 4.4 03:20:15 10° N 03:26:25 82° E 03:29:52 28° S
Cosmos 2333 Rocket 2.3 03:26:12 10° NNW 03:31:43 51° WSW 03:32:52 44° SW
Cosmos 1500 Rocket 4.4 03:35:17 34° W 03:35:25 34° WNW 03:39:28 10° NNW
Cosmos 2058 3.3 03:37:40 45° W 03:37:47 46° W 03:41:46 10° N
Cosmos 2297 Rocket 2.3 03:38:44 41° SW 03:40:40 66° WNW 03:46:18 10° NNE
UNKNOWN OBJECT B 4.1 03:38:25 10° NNE 03:42:08 36° E 03:44:01 23° SSE
Cosmos 1980 3.8 03:38:23 10° NNW 03:43:54 54° WSW 03:46:07 34° SSW
Cosmos 2219 Rocket 3.0 03:40:54 10° NW 03:45:50 31° WSW 03:46:02 31° WSW
Cosmos 1464 Rocket 3.9 03:41:20 10° N 03:47:29 74° W 03:51:06 26° S
NOSS 0 Rocket 4.3 03:42:33 10° NW 03:48:20 42° WSW 03:50:18 33° SSW
ISS -3.3 03:45:38 10° NW 03:48:53 61° NE 03:52:07 10° ESE
ATLAS 3B CENTAUR R/B 3.7 03:33:29 10° WSW 03:49:00 44° SSW 03:54:58 10° ESE
Cosmos 1805 Rocket 3.5 03:47:45 42° S 03:49:12 85° W 03:53:40 10° N
COBE Rocket 3.7 03:47:00 10° N 03:51:39 70° WNW 03:53:17 39° SSW
Spot 4 Rocket 4.0 03:46:37 10° N 03:51:45 68° WNW 03:53:52 35° SW
BREEZE-M DEB 2.9 03:50:23 35° WSW 03:52:01 67° NW 03:54:30 10° NE
Cosmos 1241 Rocket 4.4 03:49:06 10° NNW 03:55:35 89° WSW 04:01:53 10° SSE
Cosmos 2208 Rocket 3.9 03:52:21 10° NNW 03:57:34 80° WSW 04:02:13 13° SSE
DELTA 2 R/B (1) 3.5 03:55:02 32° WSW 03:57:39 75° SSE 04:03:12 10° E
Transit 2A Rocket 4.4 03:58:21 41° SW 03:59:47 75° WNW 04:04:08 10° NNE
Cosmos 2237 Rocket 2.6 03:57:44 10° NW 04:02:57 40° WSW 04:05:10 28° SSW
SL-16 R/B 2.2 03:57:38 10° NNW 04:03:21 83° ENE 04:09:01 10° SSE
Okean O Rocket 4.2 04:01:24 10° NE 04:04:01 15° E 04:06:35 10° SE
Lacrosse 4 Rocket 1.5 04:05:12 31° S 04:07:01 66° ESE 04:11:12 10° NNE
IRS-1D 3.8 04:02:22 10° N 04:07:35 54° WNW 04:10:15 27° SW
ATLAS 5 CENTAUR R/B 4.1 04:09:02 10° SE 04:11:38 15° ESE 04:14:17 10° ENE
Aureole 2 Rocket 4.2 04:11:12 10° NW 04:14:04 22° W 04:14:04 22° W
SL-16 R/B 2.8 04:11:08 21° SSW 04:15:01 46° W 04:20:57 10° NNW
Cosmos 1470 Rocket 4.4 04:12:58 11° SSE 04:16:56 48° E 04:21:05 10° NNE
Cosmos 1633 Rocket 3.0 04:15:40 24° SSW 04:18:12 75° W 04:22:34 10° N
Cosmos 2227 Rocket 3.5 04:15:37 17° W 04:18:32 26° WNW 04:23:15 10° N
UNK 4.5 04:19:04 26° SW 04:20:40 33° W 04:24:51 10° NNW
MOZ.5/SAFIR/RUBIN 5/SL-8 3.7 04:16:02 10° SSE 04:20:47 86° WSW 04:25:36 10° NNW
Sich 1 3.2 04:18:35 26° SSW 04:20:53 57° W 04:25:12 10° N
CZ-2D R/B 3.3 04:20:19 10° N 04:24:23 79° WNW 04:27:08 20° SSW
Cosmos 1400 Rocket 4.3 04:25:04 10° SSE 04:28:35 34° E 04:32:10 10° NNE
Resurs 1-4 Rocket 3.0 04:27:36 10° N 04:32:18 33° WNW 04:35:28 18° WSW
ADEOS 4.5 04:30:20 10° N 04:34:59 33° WNW 04:38:12 17° WSW
Cosmos 1455 3.7 04:33:30 10° NW 04:36:22 20° W 04:37:17 19° WSW
CZ-3 R/B 4.0 03:51:14 10° W 04:38:31 60° SSW 04:48:46 10° ESE
ADEOS Rocket 4.4 04:34:15 10° N 04:40:47 35° WNW 04:46:36 14° WSW
ORS 1 (USA 231) 4.4 04:39:31 23° WSW 04:41:14 74° SSE 04:44:16 10° E
Cosmos 2263 Rocket 4.0 04:36:40 10° SSE 04:41:19 28° ESE 04:45:57 10° NE
ADEOS II 2.9 04:37:16 10° NNE 04:42:23 49° E 04:47:27 10° S
ATLAS 2AS CENTAUR R/B 4.2 04:41:19 10° WNW 04:45:43 16° WSW 04:48:17 14° SW
MOS 1-B 4.4 04:40:16 10° NNE 04:46:05 89° WNW 04:51:51 10° SSW
Cosmos 1869 4.2 04:43:33 10° NNW 04:47:07 30° W 04:49:52 14° SSW
CZ-2D R/B 3.4 04:43:13 10° NNW 04:47:21 24° WNW 04:50:47 13° WSW
NOSS 3-4 (A) 3.8 04:40:20 10° NW 04:47:27 78° WSW 04:55:00 10° SSE
NOSS 3-4 (C) 3.8 04:40:26 10° NW 04:47:33 79° WSW 04:55:08 10° SSE
CZ-4B R/B 3.9 04:43:34 10° NNE 04:47:52 50° E 04:51:57 10° S
Cosmos 220 Rocket 4.2 04:44:11 10° SSW 04:48:32 78° ESE 04:53:00 10° NNE
Cosmos 371 Rocket 3.4 04:44:45 10° NNW 04:49:35 79° ENE 04:54:22 10° SSE
In-Cosmos 22 Rocket 4.2 04:46:02 10° S 04:51:21 82° E 04:56:41 10° N
Landsat 4 3.8 04:50:32 10° SSE 04:54:18 80° ENE 04:58:08 10° N
Cosmos 2242 Rocket 3.9 04:50:46 10° NNW 04:55:06 49° W 04:59:27 10° SSW
ARIANE 5 R/B 4.0 04:52:22 10° NNW 04:56:03 21° WNW 04:59:32 11° WSW
GPS 2-04 Rocket1 3.8 04:54:48 12° WSW 04:57:56 27° SSW 05:01:33 10° SE
SL-24 R/B 4.0 04:54:30 10° N 04:58:16 49° WNW 05:01:45 10° SSW
Meteor 2-10 Rocket 3.4 04:59:10 10° NNW 05:04:11 81° W 05:09:14 10° S
MOS 1 Rocket 4.4 05:03:47 10° N 05:08:23 34° WNW 05:13:09 10° SW
PSLV R/B 3.8 05:04:51 10° N 05:08:52 72° WNW 05:12:46 10° SSW
Cosmos 1867 4.4 05:03:42 10° S 05:08:54 49° ESE 05:14:10 10° NE
USA 161 2.8 05:12:28 11° WSW 05:12:59 12° W 05:13:50 10° WNW
BREEZE-M R/B 3.2 05:08:46 10° WSW 05:15:28 78° NW 05:18:51 10° NE
Cosmos 1862 Rocket 3.9 05:11:47 10° NNW 05:15:54 44° W 05:20:00 10° SSW
Cosmos 1933 Rocket 4.4 05:16:06 10° SW 05:20:10 34° WNW 05:24:16 10° NNW
Cosmos 1315 Rocket 2.9 05:17:38 10° S 05:21:42 83° E 05:25:44 10° N
Cosmos 332 Rocket 4.4 05:19:29 10° NW 05:23:53 35° WSW 05:28:17 10° SSW
Cosmos 2297 Rocket 4.4 05:25:15 10° NW 05:25:50 10° NW 05:26:25 10° NW
Cosmos 1603 3.8 05:20:25 10° NNW 05:26:01 57° WSW 05:31:32 10° S
